Jackson, KY

5:11 PM EST on November 13, 2019 (GMT -0500)
Carroll

Weather History for KJKL - September, 2019

Change the Weather History Date:

Friday, September 20, 2019

  Actual Average Record
Temperature  
Mean Temperature 77 °F 67 °F  
Max Temperature 88 °F 77 °F 90 °F (2018)
Min Temperature 65 °F 57 °F 42 °F (1991)
Degree Days  
Heating Degree Days 0 2  
Month to date heating degree days 0 16  
Since 1 July heating degree days 0 18  
Cooling Degree Days 12 4  
Month to date cooling degree days 247 115  
Year to date cooling degree days 1384 1093  
Growing Degree Days 26 (Base 50)    
Moisture  
Dew Point 61 °F    
Average Humidity 64    
Maximum Humidity 84    
Minimum Humidity 43    
Precipitation  
Precipitation 0.00 in 0.12 in 0.37 in (1986)
Month to date precipitation 0.00 2.27  
Year to date precipitation 39.46 35.82  
Snow  
Snow 0.00 in 0.00 in - ()
Month to date snowfall 0.0 0.0  
Since 1 July snowfall 0.0 0.0  
Since 1 September snowfall 0.0 0.0  
Snow Depth 0.00 in    
Sea Level Pressure  
Sea Level Pressure 30.19 in    
Wind  
Wind Speed 2 mph (SW)    
Max Wind Speed 8 mph    
Max Gust Speed 15 mph    
Visibility 10 miles    
Events      
T = Trace of Precipitation, MM = Missing Value Source: NWS Daily Summary

Daily Weather History Graph

Daily Weather History Graph

Search for Another Location

Airport or City:

Astronomy

Sep. 20, 2019 Rise Set
Actual Time 7:19 AM EDT 7:33 PM EDT
Civil Twilight 6:53 AM EDT 7:59 PM EDT
Nautical Twilight 6:22 AM EDT 8:30 PM EDT
Astronomical Twilight 5:51 AM EDT 9:01 PM EDT
Moon 11:29 PM EDT (9/20) 1:16 PM EDT (9/20)
Length of Visible Light 13h 06m
Length of Day
12h 14m
Waning Gibbous, 65% of the Moon is Illuminated
Sep 20
Waning Gibbous
Sep 21
Last Quarter
Sep 28
New
Oct 5
First Quarter
Oct 13
Full

Hourly Weather History & Observations

Time (EDT) Temp. Heat Index Dew Point Humidity Pressure Visibility Wind Dir Wind Speed Gust Speed Precip Events Conditions
12:53 AM 68.0 °F - 61.0 °F 78% 30.14 in 10.0 mi Calm Calm - N/A   Overcast
1:53 AM 68.0 °F - 60.1 °F 76% 30.16 in 10.0 mi Calm Calm - N/A   Overcast
2:53 AM 68.0 °F - 60.1 °F 76% 30.16 in 10.0 mi SSE 3.5 mph - N/A   Mostly Cloudy
3:53 AM 66.9 °F - 60.1 °F 79% 30.17 in 10.0 mi Calm Calm - N/A   Mostly Cloudy
4:53 AM 66.9 °F - 59.0 °F 76% 30.18 in 10.0 mi SSW 3.5 mph - N/A   Overcast
5:53 AM 66.0 °F - 59.0 °F 78% 30.19 in 10.0 mi Calm Calm - N/A   Overcast
7:53 AM 64.9 °F - 59.0 °F 81% 30.22 in 10.0 mi Calm Calm - N/A   Mostly Cloudy
8:53 AM 66.9 °F - 60.1 °F 79% 30.23 in 10.0 mi SSW 3.5 mph - N/A   Clear
9:53 AM 72.0 °F - 60.1 °F 66% 30.24 in 10.0 mi Calm Calm - N/A   Mostly Cloudy
10:53 AM 75.9 °F - 60.1 °F 58% 30.24 in 10.0 mi Variable 3.5 mph - N/A   Mostly Cloudy
11:53 AM 77.0 °F - 60.1 °F 56% 30.24 in 10.0 mi Variable 6.9 mph - N/A   Mostly Cloudy
12:53 PM 79.0 °F - 61.0 °F 54% 30.22 in 10.0 mi Variable 5.8 mph - N/A   Mostly Cloudy
1:53 PM 82.9 °F 83.7 °F 62.1 °F 49% 30.19 in 10.0 mi Calm Calm - N/A   Scattered Clouds
2:53 PM 87.1 °F 87.5 °F 62.1 °F 43% 30.17 in 10.0 mi WNW 5.8 mph - N/A   Partly Cloudy
3:53 PM 84.9 °F 85.4 °F 62.1 °F 46% 30.16 in 10.0 mi Variable 4.6 mph - N/A   Mostly Cloudy
4:53 PM 88.0 °F 88.4 °F 62.1 °F 42% 30.16 in 10.0 mi North - - N/A   Scattered Clouds
5:53 PM 86.0 °F 86.3 °F 62.1 °F 44% 30.16 in 10.0 mi Variable 4.6 mph - N/A   Mostly Cloudy
6:53 PM 82.0 °F 83.0 °F 62.1 °F 51% 30.17 in 10.0 mi Calm Calm - N/A   Clear
7:53 PM 79.0 °F - 62.1 °F 56% 30.18 in 10.0 mi West 3.5 mph - N/A   Clear
8:53 PM 78.1 °F - 62.1 °F 58% 30.19 in 10.0 mi Calm Calm - N/A   Mostly Cloudy
9:53 PM 75.9 °F - 62.1 °F 62% 30.20 in 10.0 mi Calm Calm - N/A   Clear
10:53 PM 75.0 °F - 62.1 °F 64% 30.21 in 10.0 mi Calm Calm - N/A   Clear
11:53 PM 73.0 °F - 63.0 °F 71% 30.22 in 10.0 mi Calm Calm - N/A   Clear